Location: Kott?ru
(16.6209°N, 80.6208°E)
Time: 14:26:14
(UTC+00:00)

Cosmos 2237 - Pass Details

Date: 18 September 2020
Orbit: 849 x 853 km, 70.8° (Epoch: 29 October)

Event Time Altitude Azimuth Distance (km) Brightness Sun altitude
Exits shadow 23:10:57 - 203° (SSW) 2,603 6.5 -18.8°
Reaches altitude 10° 23:11:18 10° 203° (SSW) 2,472 6.3 -18.7°
Maximum altitude 23:16:57 71° 287° (WNW) 899 4.1 -17.4°
Drops below altitude 10° 23:22:37 10° 11° (N) 2,473 6.8 -16.0°
Sets 23:25:05 0° 14° (NNE) 3,409 7.6 -15.4°
